Location: *
(60.1759°S, 155.0663°W)
Time: 11:14:02
(UTC+00:00)

Cosmos 1354 Rocket - Pass Details

Date: 17 September 2019
Orbit: 765 x 783 km, 74.0° (Epoch: 13 October)

Event Time Altitude Azimuth Distance (km) Brightness Sun altitude
Exits shadow 12:51:59 69° 345° (NNW) 838 3.9 -24.7°
Maximum altitude 12:52:38 84° 60° (ENE) 795 4.0 -24.7°
Drops below altitude 10° 12:58:01 10° 147° (SSE) 2,360 7.5 -24.2°
Sets 13:00:25 0° 147° (SSE) 3,295 8.6 -24.0°
